Regional Weather Roundup
Issued by NWS

Home | Current Version | Previous Version | Graphics & Text | Print | Product List | Glossary On
Versions: 1 2 3 4 5 6 7 8 9 10 11 12 13 14 15 16 17 18 19 20 21 22 23 24 25 26 27 28 29 30 31 32 33 34 35 36 37 38 39 40 41 42 43 44 45 46 47 48 49 50
955
ASUS43 KBIS 290510
RWRND
NORTH DAKOTA REGIONAL WEATHER ROUNDUP
NATIONAL WEATHER SERVICE EASTERN NORTH DAKOTA/GRAND FORKS ND
1200 AM CDT MON MAY 29 2017

  NOTE: "FAIR" INDICATES FEW OR NO CLOUDS BELOW 12,000 FEET WITH NO
  SIGNIFICANT WEATHER AND/OR OBSTRUCTIONS TO VISIBILITY.

NDZ001>003-009>011-017-290600-
...NORTHWEST NORTH DAKOTA...

CITY           SKY/WX    TMP DP  RH WIND       PRES   REMARKS
WILLISTON      FAIR      52  40  63 NW9       30.07R
MINOT          CLOUDY    55  44  66 NW16      29.95S
MINOT AFB      CLOUDY    53  44  71 NW21G26   29.94S
$$

NDZ018>021-031>035-040>046-290600-
...SOUTHWEST NORTH DAKOTA...

CITY           SKY/WX    TMP DP  RH WIND       PRES   REMARKS
BISMARCK       FAIR      55  41  59 NW8       29.97R
DICKINSON      FAIR      42  34  73 NW7       30.03S
GARRISON         N/A     46  40  79 NW9       29.97S
HETTINGER      FAIR      48  37  65 N8        30.06R
$$

NDZ004>008-012>016-024-026-027-054-290600-
...NORTHEAST NORTH DAKOTA...

CITY           SKY/WX    TMP DP  RH WIND       PRES   REMARKS
GRAND FORKS    CLOUDY    53  50  89 NW15G25   29.79S
GRAND FORKS AF CLOUDY    52  49  89 N10       29.80S
DEVILS LAKE    MOCLDY    52  45  77 NW14      29.85F
$$

NDZ022-023-025-028>030-036>039-047>053-290600-
...SOUTHEAST NORTH DAKOTA...

CITY           SKY/WX    TMP DP  RH WIND       PRES   REMARKS
JAMESTOWN      CLOUDY    52  48  86 NW12      29.86S
FARGO          CLOUDY    54  48  80 NW14      29.80S
WAHPETON       CLOUDY    54  43  66 NW15G22   29.81S
$$




USA.gov is the U.S. government's official web portal to all federal, state and local government web resources and services.